• En España
  • Lista de países
  • Para 7 días
  • Temperatura del agua
  • Mapa Satelital
  • El tiempo en el mapa
  • Informadores
  • user-avatar
    Iniciar sesión

    Tiempo cada hora Tavira

    Hoy, 20 Octubre, Sábado

    Tiempo Temperatura Precipitaciones Viento Presión Humedad
    00:00 +15°C° 0.1 mm 4 mps 757 mmHg 61%
    01:00 +15°C° 0.1 mm 4 mps 757 mmHg 61%
    02:00 +15°C° 0.1 mm 4 mps 757 mmHg 61%
    03:00 +14°C° 0.2 mm 4 mps 757 mmHg 61%
    04:00 +14°C° 0.2 mm 4 mps 757 mmHg 62%
    05:00 +14°C° 0.2 mm 4 mps 758 mmHg 63%
    06:00 +15°C° 0.2 mm 5 mps 758 mmHg 58%
    07:00 +17°C° 0.2 mm 5 mps 758 mmHg 53%
    08:00 +20°C° 0.2 mm 5 mps 758 mmHg 48%
    09:00 +20°C° 0.1 mm 6 mps 758 mmHg 49%
    10:00 +20°C° 0.1 mm 7 mps 758 mmHg 51%
    11:00 +20°C° 0.1 mm 7 mps 758 mmHg 52%
    12:00 +21°C° 0.3 mm 7 mps 758 mmHg 52%
    13:00 +21°C° 0.3 mm 7 mps 758 mmHg 52%
    14:00 +22°C° 0.3 mm 6 mps 758 mmHg 52%
    15:00 +21°C° 0.1 mm 6 mps 758 mmHg 57%
    16:00 +20°C° 0.1 mm 6 mps 758 mmHg 62%
    17:00 +19°C° 0.1 mm 6 mps 758 mmHg 67%
    18:00 +19°C° 0 mm 5 mps 758 mmHg 70%
    19:00 +17°C° 0 mm 5 mps 758 mmHg 72%
    20:00 +17°C° 0 mm 5 mps 759 mmHg 75%
    21:00 +17°C° 0.1 mm 4 mps 759 mmHg 77%
    22:00 +17°C° 0.1 mm 4 mps 759 mmHg 79%
    23:00 +17°C° 0.1 mm 4 mps 759 mmHg 81%

    Mañana, 21 Octubre, Domingo

    Tiempo Temperatura Precipitaciones Viento Presión Humedad
    00:00 +15°C° 0.2 mm 4 mps 759 mmHg 82%
    01:00 +15°C° 0.2 mm 4 mps 759 mmHg 84%
    02:00 +16°C° 0.2 mm 3 mps 759 mmHg 86%
    03:00 +15°C° 0 mm 4 mps 759 mmHg 86%
    04:00 +15°C° 0 mm 4 mps 759 mmHg 86%
    05:00 +15°C° 0 mm 4 mps 759 mmHg 86%
    06:00 +17°C° 0 mm 4 mps 759 mmHg 80%
    07:00 +19°C° 0 mm 4 mps 760 mmHg 75%
    08:00 +20°C° 0 mm 5 mps 760 mmHg 69%
    09:00 +22°C° 0 mm 5 mps 760 mmHg 63%
    10:00 +23°C° 0 mm 5 mps 760 mmHg 58%
    11:00 +26°C° 0 mm 5 mps 760 mmHg 52%
    12:00 +26°C° 0 mm 4 mps 760 mmHg 51%
    13:00 +26°C° 0 mm 4 mps 760 mmHg 50%
    14:00 +26°C° 0 mm 4 mps 760 mmHg 48%
    15:00 +25°C° 0 mm 3 mps 760 mmHg 55%
    16:00 +23°C° 0 mm 2 mps 760 mmHg 62%
    17:00 +21°C° 0 mm 2 mps 760 mmHg 68%
    18:00 +20°C° 0 mm 2 mps 761 mmHg 73%
    19:00 +20°C° 0 mm 1 mps 761 mmHg 78%
    20:00 +20°C° 0 mm 1 mps 761 mmHg 82%
    21:00 +19°C° 0 mm 1 mps 761 mmHg 83%
    22:00 +18°C° 0 mm 2 mps 761 mmHg 85%
    23:00 +18°C° 0 mm 2 mps 761 mmHg 86%

    Pasado mañana, 22 Octubre, Lunes

    Tiempo Temperatura Precipitaciones Viento Presión Humedad
    00:00 +18°C° 0 mm 2 mps 761 mmHg 86%
    01:00 +18°C° 0 mm 2 mps 761 mmHg 86%
    02:00 +17°C° 0 mm 3 mps 761 mmHg 87%
    03:00 +17°C° 0 mm 3 mps 761 mmHg 87%
    04:00 +17°C° 0 mm 3 mps 761 mmHg 87%
    05:00 +17°C° 0 mm 3 mps 761 mmHg 88%
    06:00 +19°C° 0 mm 3 mps 761 mmHg 80%
    07:00 +20°C° 0 mm 3 mps 762 mmHg 73%
    08:00 +22°C° 0 mm 4 mps 762 mmHg 65%
    09:00 +25°C° 0 mm 4 mps 762 mmHg 57%
    10:00 +27°C° 0 mm 4 mps 762 mmHg 50%
    11:00 +28°C° 0 mm 4 mps 762 mmHg 42%
    12:00 +29°C° 0 mm 3 mps 762 mmHg 40%
    13:00 +29°C° 0 mm 3 mps 761 mmHg 38%
    14:00 +30°C° 0 mm 2 mps 761 mmHg 36%
    15:00 +28°C° 0 mm 2 mps 761 mmHg 41%
    16:00 +26°C° 0 mm 1 mps 761 mmHg 47%
    17:00 +25°C° 0 mm 1 mps 761 mmHg 52%
    18:00 +24°C° 0 mm 1 mps 762 mmHg 55%
    19:00 +23°C° 0 mm 1 mps 762 mmHg 59%
    20:00 +21°C° 0 mm 2 mps 762 mmHg 62%
    21:00 +21°C° 0 mm 2 mps 762 mmHg 63%
    22:00 +21°C° 0 mm 2 mps 762 mmHg 64%
    23:00 +20°C° 0 mm 2 mps 762 mmHg 65%

    23 Octubre, Martes

    Tiempo Temperatura Precipitaciones Viento Presión Humedad
    00:00 +20°C° 0 mm 2 mps 762 mmHg 66%
    01:00 +20°C° 0 mm 2 mps 762 mmHg 67%
    02:00 +19°C° 0 mm 3 mps 762 mmHg 68%
    03:00 +19°C° 0 mm 3 mps 762 mmHg 68%
    04:00 +19°C° 0 mm 3 mps 762 mmHg 69%
    05:00 +19°C° 0 mm 3 mps 762 mmHg 69%
    06:00 +20°C° 0 mm 4 mps 762 mmHg 66%
    07:00 +22°C° 0 mm 4 mps 762 mmHg 64%
    08:00 +23°C° 0 mm 5 mps 763 mmHg 61%
    09:00 +25°C° 0 mm 5 mps 763 mmHg 57%
    10:00 +26°C° 0 mm 6 mps 763 mmHg 53%
    11:00 +27°C° 0 mm 6 mps 763 mmHg 48%
    12:00 +27°C° 0 mm 6 mps 762 mmHg 49%
    13:00 +27°C° 0 mm 6 mps 762 mmHg 49%
    14:00 +27°C° 0 mm 5 mps 762 mmHg 49%
    15:00 +26°C° 0 mm 5 mps 762 mmHg 53%
    16:00 +25°C° 0 mm 5 mps 762 mmHg 57%
    17:00 +23°C° 0 mm 4 mps 762 mmHg 61%
    18:00 +22°C° 0 mm 5 mps 762 mmHg 66%
    19:00 +21°C° 0 mm 5 mps 763 mmHg 70%
    20:00 +20°C° 0 mm 5 mps 763 mmHg 74%
    21:00 +20°C° 0 mm 5 mps 763 mmHg 77%
    22:00 +19°C° 0 mm 6 mps 763 mmHg 80%
    23:00 +19°C° 0 mm 6 mps 763 mmHg 83%

    24 Octubre, Miércoles

    Tiempo Temperatura Precipitaciones Viento Presión Humedad
    00:00 +19°C° 0 mm 6 mps 763 mmHg 84%
    01:00 +17°C° 0 mm 6 mps 763 mmHg 86%
    02:00 +17°C° 0 mm 6 mps 763 mmHg 87%
    03:00 +17°C° 0 mm 5 mps 763 mmHg 87%
    04:00 +16°C° 0 mm 5 mps 763 mmHg 86%
    05:00 +16°C° 0 mm 5 mps 763 mmHg 86%
    06:00 +19°C° 0 mm 5 mps 763 mmHg 78%
    07:00 +20°C° 0 mm 5 mps 763 mmHg 69%
    08:00 +22°C° 0 mm 5 mps 763 mmHg 61%
    09:00 +23°C° 0 mm 5 mps 763 mmHg 55%
    10:00 +26°C° 0 mm 5 mps 763 mmHg 49%
    11:00 +27°C° 0 mm 5 mps 763 mmHg 43%
    12:00 +28°C° 0 mm 5 mps 763 mmHg 41%
    13:00 +28°C° 0 mm 4 mps 762 mmHg 39%
    14:00 +29°C° 0 mm 4 mps 762 mmHg 37%
    15:00 +27°C° 0 mm 4 mps 762 mmHg 42%
    16:00 +25°C° 0 mm 3 mps 762 mmHg 48%
    17:00 +24°C° 0 mm 3 mps 762 mmHg 53%
    18:00 +22°C° 0 mm 3 mps 762 mmHg 57%
    19:00 +21°C° 0 mm 3 mps 762 mmHg 61%
    20:00 +20°C° 0 mm 2 mps 763 mmHg 65%
    21:00 +20°C° 0 mm 3 mps 763 mmHg 66%
    22:00 +19°C° 0 mm 3 mps 762 mmHg 68%
    23:00 +19°C° 0 mm 3 mps 762 mmHg 69%

    25 Octubre, Jueves

    Tiempo Temperatura Precipitaciones Viento Presión Humedad
    00:00 +18°C° 0 mm 3 mps 762 mmHg 70%
    01:00 +18°C° 0 mm 3 mps 762 mmHg 72%
    02:00 +18°C° 0 mm 3 mps 762 mmHg 73%
    03:00 +17°C° 0 mm 4 mps 762 mmHg 74%
    04:00 +17°C° 0 mm 4 mps 762 mmHg 75%
    05:00 +17°C° 0 mm 4 mps 762 mmHg 77%
    06:00 +18°C° 0 mm 4 mps 762 mmHg 71%
    07:00 +20°C° 0 mm 4 mps 762 mmHg 65%
    08:00 +21°C° 0 mm 5 mps 762 mmHg 59%
    09:00 +23°C° 0 mm 5 mps 762 mmHg 52%
    10:00 +26°C° 0 mm 5 mps 762 mmHg 44%
    11:00 +28°C° 0 mm 5 mps 762 mmHg 37%
    12:00 +28°C° 0 mm 4 mps 761 mmHg 35%
    13:00 +28°C° 0 mm 4 mps 761 mmHg 34%
    14:00 +29°C° 0 mm 4 mps 760 mmHg 32%
    15:00 +27°C° 0 mm 3 mps 760 mmHg 36%
    16:00 +26°C° 0 mm 3 mps 760 mmHg 41%
    17:00 +24°C° 0 mm 2 mps 760 mmHg 45%
    18:00 +23°C° 0 mm 2 mps 761 mmHg 48%
    19:00 +23°C° 0 mm 2 mps 761 mmHg 50%
    20:00 +22°C° 0 mm 1 mps 761 mmHg 52%
    21:00 +22°C° 0 mm 1 mps 761 mmHg 52%
    22:00 +21°C° 0 mm 1 mps 760 mmHg 53%
    23:00 +21°C° 0 mm 1 mps 760 mmHg 53%
    Mostrar más